Weather Service Report


425 
ASUS42 KRAH 270910
RWRRAH
NORTH CAROLINA WEATHER ROUNDUP
NATIONAL WEATHER SERVICE RALEIGH NC
500 AM EDT WED JUL 27 2016

NOTE: "FAIR" INDICATES FEW OR NO CLOUDS BELOW 12,000 FEET WITH NO
SIGNIFICANT WEATHER AND/OR OBSTRUCTIONS TO VISIBILITY.

NCZ001-053-055-056-065-067-271000-
WESTERN NORTH CAROLINA
  
CITY           SKY/WX    TMP DP  RH WIND       PRES   REMARKS
ASHEVILLE      PTCLDY    70  67  90 CALM      30.10R                  
JEFFERSON      CLOUDY    69  67  91 CALM      30.14R                  
MORGANTON      CLEAR     71  71 100 CALM      30.06S FOG              
HICKORY        PTCLDY    74  73  97 CALM      30.01R                  
RUTHERFORDTON    N/A     72  72 100 CALM      30.02S FOG              
MOUNT AIRY     CLOUDY    76  73  92 CALM      30.04S                  
BOONE          PTCLDY    69  68  95 W5        30.15S                  
$$
 
NCZ021-022-025-041-071-084-088-271000-
CENTRAL NORTH CAROLINA
  
CITY           SKY/WX    TMP DP  RH WIND       PRES   REMARKS
CHARLOTTE      CLEAR     78  68  71 SW7       30.00S                  
GREENSBORO     MOCLDY    80  75  84 CALM      29.99R                  
WINSTON-SALEM  CLOUDY    77  74  90 N3        30.01R                  
RALEIGH-DURHAM MOCLDY    78  75  90 CALM      29.96S                  
FORT BRAGG     CLOUDY    82  73  73 SW8       29.95R                  
FAYETTEVILLE   PTCLDY    81  73  76 SW10      29.96R                  
BURLINGTON     PTCLDY    76  73  91 CALM      29.97S                  
LAURINBURG     CLEAR     78  73  84 SW6       29.98S                  
$$
 
NCZ011-015-027-028-043-044-047-080-103-271000-
NORTHEASTERN NORTH CAROLINA
  
CITY           SKY/WX    TMP DP  RH WIND       PRES   REMARKS
ROCKY MT-WILSO MOCLDY    76  76 100 CALM      29.95S                  
GREENVILLE     MOCLDY    81  77  89 SW5       29.96S                  
WASHINGTON     PTCLDY    78  75  89 SW3       29.94S                  
ELIZABETH CITY LGT RAIN  78  74  87 N7        29.94R                  
MANTEO         NOT AVBL                                               
CAPE HATTERAS  PTCLDY    82  77  84 W8        29.95F                  
$$
 
NCZ078-087-090-091-093-098-101-271000-
SOUTHEASTERN NORTH CAROLINA
  
CITY           SKY/WX    TMP DP  RH WIND       PRES   REMARKS
LUMBERTON      CLEAR     78  74  87 SW5       29.97S                  
GOLDSBORO      PTCLDY    79  79 100 S3        29.95S                  
KINSTON        PTCLDY    77  75  93 CALM      29.96F                  
KENANSVILLE    NOT AVBL                                               
NEW BERN       PTCLDY    78  74  87 CALM      29.97F                  
CHERRY POINT   PTCLDY    78  73  84 SW9       29.96F                  
BEAUFORT       PTCLDY    82  77  84 SW9       29.96F                  
JACKSONVILLE   MOCLDY    79  73  82 SW9       29.96F                  
WILMINGTON     PTCLDY    80  74  81 SW9       29.98S                  
$$

  

Return to Home page


Western Regional Climate Center, wrcc@dri.edu